Regional Weather Roundup
Issued by NWS

Home | Current Version | Previous Version | Graphics & Text | Print | Product List | Glossary On
Versions: 1 2 3 4 5 6 7 8 9 10 11 12 13 14 15 16 17 18 19 20 21 22 23 24 25 26 27 28 29 30 31 32 33 34 35 36 37 38 39 40 41 42 43 44 45 46 47 48 49 50
678
ASUS44 KJAN 011203
RWRMS

MISSISSIPPI HOURLY WEATHER ROUNDUP
NATIONAL WEATHER SERVICE JACKSON MS
700 AM CDT MON SEP 01 2014

NOTE: "FAIR: INDICATES FEW OR NO CLOUDS BELOW 12,000 FEET WITH NO
SIGNIFICANT WEATHER AND/OR OBSTRUCTIONS TO VISIBILITY.

MSZ001>002-007>008-010>013-018>021-025>028-034>036-011300-
NORTHWEST MISSISSIPPI

CITY           SKY/WX    TMP DP  RH WIND       PRES   REMARKS
CLARKSDALE     FAIR      75  75 100 CALM      30.03S
CLEVELAND      FAIR      74  74 100 CALM      30.02S
GREENWOOD      CLEAR     73  72  96 S5        30.05R
6HR MIN TEMP:  71; 6HR MAX TEMP:  77;

GREENVILLE     CLEAR     75  73  93 S3        30.02R
6HR MIN TEMP:  75; 6HR MAX TEMP:  77;

GRENADA        FAIR      72  70  94 S3        30.06R
OLIVE BRANCH   PTCLDY    73  73 100 S5        30.04R
OXFORD         FAIR      73  72  94 SW6       30.07R FOG
TUNICA         CLOUDY    73  73 100 S5        30.04R FOG
$$

MSZ003>006-009-014>017-022>024-029>033-037>039-011300-
NORTHEAST MISSISSIPPI

CITY           SKY/WX    TMP DP  RH WIND       PRES   REMARKS
BELMONT        FAIR      72  71  95 S5        30.08S
COLUMBUS AFB   CLEAR     70  70 100 SE2       30.09R
6HR MIN TEMP:  69; 6HR MAX TEMP:  74;

CORINTH        FAIR      73  72  94 SE5       30.06R FOG
GOLDN TRIANGLE CLEAR     72  66  83 CALM      30.09R
STARKVILLE     FOG       68  68 100 CALM      30.08R VSB<1/4
TUPELO         CLEAR     72  70  93 SW5       30.07R FOG
6HR MIN TEMP:  71; 6HR MAX TEMP:  77;

$$

MSZ040-058-011300-
CENTRAL MISSISSIPPI

CITY           SKY/WX    TMP DP  RH WIND       PRES   REMARKS
JACKSON INTL   MOCLDY    73  72  96 CALM      30.05R
6HR MIN TEMP:  73; 6HR MAX TEMP:  77;

JACKSON HAWKNS MOCLDY    75  73  93 SE3       30.06R
6HR MIN TEMP:  75; 6HR MAX TEMP:  77;

MERIDIAN KEY   MOCLDY    72  70  93 CALM      30.08R
6HR MIN TEMP:  69; 6HR MAX TEMP:  75;

MERIDIAN NAS   CLOUDY    73  71  93 CALM      30.08R
6HR MIN TEMP:  72; 6HR MAX TEMP:  76;

RAYMOND        FAIR      73  68  83 CALM      30.05R HAZE
VICKSBURG      PTCLDY    75  74  96 SE5       30.02S
6HR MIN TEMP:  73; 6HR MAX TEMP:  78;

$$

MSZ059>079-011300-
SOUTH MISSISSIPPI

CITY           SKY/WX    TMP DP  RH WIND       PRES   REMARKS
BROOKHAVEN     FAIR      73  73 100 SE3       30.07R FOG
HATTIESBURG    CLOUDY    73  71  93 CALM      30.07S FOG
6HR MIN TEMP:  71; 6HR MAX TEMP:  76;

MCCOMB         FOG       74  73  97 CALM      30.05S VSB 1/2
6HR MIN TEMP:  73; 6HR MAX TEMP:  76;

NATCHEZ        MOCLDY    75  73  94 SE5       30.03S
6HR MIN TEMP:  75; 6HR MAX TEMP:  77;

PINE BELT      CLOUDY   N/A N/A N/A CALM      30.08S VSB 1/4
$$

MSZ080>082-011300-
COASTAL MISSISSIPPI

CITY           SKY/WX    TMP DP  RH WIND       PRES   REMARKS
BILOXI         PTCLDY    80  76  88 E5        30.05R
6HR MIN TEMP:  80; 6HR MAX TEMP:  84;

PASCAGOULA     FOG       71  71 100 CALM      30.05S VSB 1
6HR MIN TEMP:  71; 6HR MAX TEMP:  75;

GULFPORT       PTCLDY    77  75  93 CALM      30.04R
6HR MIN TEMP:  77; 6HR MAX TEMP:  83;

$$



USA.gov is the U.S. government's official web portal to all federal, state and local government web resources and services.